Location: Oak Glen
(34.0495°N, 116.9470°E)
Time: 02:14:45
(UTC-07:00)

ISS - Pass Details

Date: 15 October 2017
Orbit: 401 x 408 km, 51.6° (Epoch: 19 October)

Event Time Altitude Azimuth Distance (km) Brightness Sun altitude
Rises 03:15:02 0° 322° (NW) 2,318 0.5 -8.4°
Reaches altitude 10° 03:17:16 10° 333° (NNW) 1,458 -0.7 -8.8°
Maximum altitude 03:20:13 30° 37° (NE) 751 -2.8 -9.4°
Enters shadow 03:22:29 14° 95° (E) 1,223 -2.1 -9.9°
